Location: Brunsbüttel
(52.3892°N, 10.6138°E)
Time: 10:09:07
(UTC+00:00)

Cosmos 1538 Rocket - Pass Details

Date: 19 May 2025
Orbit: 749 x 788 km, 74.0° (Epoch: 23 June)

Event Time Altitude Azimuth Distance (km) Brightness Sun altitude
Exits shadow 22:50:42 28° 200° (SSW) 1,387 4.8 -17.5°
Maximum altitude 22:53:29 84° 114° (ESE) 762 3.9 -17.5°
Drops below altitude 10° 22:58:39 10° 26° (NNE) 2,281 7.4 -17.6°
Sets 23:01:01 0° 26° (NNE) 3,209 8.3 -17.6°
